Contact Us:
Email: info@sawbill.com
Phone: (218)663-7150
Fax: (218)663-7980
Mail: 4620 Sawbill Trail
Box 2129
Tofte, MN 55615


Powered by
Movable Type 3.15
 
Sawbill Weather History Archives: February 2014
Current Sawbill Weather History | « January 2014 | March 2014 »


Date

High
Temperature

Low
Temperature

Barometric
Pressure

Relative
Humidity 7AM

9 AM
Temperature

Moisture

Snow

2/28/14 2 -13 30.12 58% -13 Trace Trace
2/27/14 -6 -24 30.00 58% -7 0
2/26/14 4 -24 30.00 64% -24 .15" 1"
2/25/14 1 -13 29.88 64% -11 Trace Trace
2/24/14 9 -11 30.06 68% -11 0
2/23/14 6 -3 30.06 60% -3 Trace Trace
2/22/14 12 0 29.92 62% 20 0
2/21/14 21 0 29.76 64% 0 .4" 5"
2/20/14 33 19 29.44 81% 19 .82" 9"
2/19/14 33 20 29.86 69% 24 0
2/18/14 35 18 29.80 79% 20 0
2/17/14 21 11 29.81 87% 21 .12" 1.5"
2/16/14 11 -16 29.98 66% -11 .06" 1"
2/15/14 9 -16 30.14 66% -15 .1" 1"
2/14/14 7 -10 30.00 66% 5 .06" 1"
2/13/14 18 -9 29.92 66% -8 .12" 2"
2/12/14 11 5 29.78 73% 11 .09" 2"
2/11/14 11 -19 30.02 62% 6 .07" 1"
2/10/14 1 -19 30.20 54% -19 0
2/9/14 0 -13 30.18 54% -13 0
2/8/14 11 -19 30.10 56% -8 0
2/7/14 8 -20 30.06 56% -19 0
2/6/14 2 -14 29.98 60% -3 0
2/5/14 3 -14 30.14 62% -14 0
2/4/14 6 -7 30.30 58% -5 0
2/3/14 13 -15 30.26 58% -5 0
2/2/14 6 -10 30.10 58% -3 0
2/1/14 12 -12 30.10 58% -10 .2" 2"
 


Home I Trip Planning I Rentals and Outfitting I Reservations I Campgrounds I Sawbill Store I Sawbill News I Contact

© 1997 - 2017, Sawbill Canoe Outfitters, Inc. I Privacy Policy